Volver al catálogo

YAOGAN-39 01A

ActivoMilitarVLEO
NORAD 57727·PAYLOAD·🇨🇳 China

Lanzado Aug 31, 2023 desde Xichang Satellite Launch Center

Loading…

Próximos Pases (próximas 24 horas)

TLE

ActualizadoSource: Space-Track

Época: Sep 14, 2026, 13:12 UTC

1 57727U 23130A   26257.55012575  .00006237  00000-0  26072-3 0  9997
2 57727  35.0035 286.7582 0003569 226.7778 133.2639 15.22929557169343

Sigue YAOGAN-39 01A en tiempo real con AllMySat

Download on the App Store